Location: *
(32.8667°N, 13.1833°E)
Time: 19:45:54
(UTC+00:00)

Cosmos 332 Rocket - Pass Details

Date: 18 July 2019
Orbit: 683 x 703 km, 74.0° (Epoch: 24 August)

Event Time Altitude Azimuth Distance (km) Brightness Sun altitude
Rises 19:34:42 0° 344° (NNW) 3,054 8.0 -15.0°
Reaches altitude 10° 19:37:01 10° 345° (NNW) 2,132 7.1 -15.4°
Maximum altitude 19:41:49 84° 74° (ENE) 691 3.7 -16.2°
Enters shadow 19:44:39 25° 161° (SSE) 1,375 4.8 -16.6°
